Weather reports worldwide

Advertisment
La Coruna, Spain (8001): temperature & dewpoint: 10.01.2021 06:00:00 - 16.01.2021 06:00:00 (CET)La Coruna, Spain (8001): wind speed: 10.01.2021 06:00:00 - 16.01.2021 06:00:00 (CET)La Coruna, Spain (8001): wind direction: 10.01.2021 06:00:00 - 16.01.2021 06:00:00 (CET)La Coruna, Spain (8001): reduced air pressure: 10.01.2021 06:00:00 - 16.01.2021 06:00:00 (CET)La Coruna, Spain (8001): visibility: 10.01.2021 06:00:00 - 16.01.2021 06:00:00 (CET)La Coruna, Spain (8001): precipitation: 10.01.2021 06:00:00 - 16.01.2021 06:00:00 (CET)
Date & Time tt [°C] td [°C] ff [km/h] ff [kn] dd ppp [hPa] vv [km] rr [mm]
16.01.2021 06:00:00 3,4 1,4 5 3 SSE 1031,1 20 0,0
16.01.2021 05:00:00 3,6 1,3 5 3 SSE 1031,1 20 0,0
16.01.2021 04:00:00 4,0 1,7 11 6 SSE 1031,1 15 -
16.01.2021 03:00:00 4,4 2,7 13 7 SSE 1031,0 17 0,0
16.01.2021 02:00:00 4,9 2,8 11 6 SSE 1031,6 19 0,0
16.01.2021 01:00:00 5,4 3,1 5 3 SE 1032,0 15 -
16.01.2021 00:00:00 6,2 4,4 5 3 SSE 1031,6 14 0,0
15.01.2021 23:00:00 6,9 4,9 11 6 SSE 1031,2 18 0,0
15.01.2021 22:00:00 7,9 4,8 11 6 SSE 1031,3 20 -
15.01.2021 21:00:00 8,9 5,5 8 4 SE 1031,5 20 0,0
15.01.2021 20:00:00 9,6 7,7 4 2 ENE 1031,3 17 0,0
15.01.2021 19:00:00 10,1 5,9 2 1 ENE 1031,1 20 -
15.01.2021 18:00:00 10,9 6,8 8 4 ENE 1030,7 20 0,0
15.01.2021 17:00:00 11,8 5,6 5 3 ESE 1030,2 20 0,0
15.01.2021 16:00:00 12,5 5,4 5 3 SE 1030,7 20 -
15.01.2021 15:00:00 12,8 7,2 5 3 ESE 1030,9 20 0,0
15.01.2021 14:00:00 12,3 7,8 5 3 ESE 1031,6 20 0,0
15.01.2021 13:00:00 11,6 8,1 8 4 SE 1032,5 20 -
15.01.2021 12:00:00 10,2 7,4 8 4 SSE 1033,0 20 0,0
15.01.2021 11:00:00 8,2 6,8 8 4 SE 1032,7 19 0,0
15.01.2021 10:00:00 7,3 6,4 8 4 SE 1032,3 20 -
15.01.2021 09:00:00 7,5 6,6 5 3 ESE 1031,9 19 0,0
15.01.2021 08:00:00 8,0 7,6 9 5 SSE 1031,6 15 0,0
15.01.2021 07:00:00 8,1 7,8 13 7 SSE 1030,9 2,0 -
15.01.2021 06:00:00 8,4 8,0 5 3 SSE 1031,7 0,4 0,0
15.01.2021 05:00:00 9,3 8,5 5 3 SSE 1031,4 - 0,0
15.01.2021 04:00:00 10,0 9,4 5 3 SE 1031,6 10 -
15.01.2021 03:00:00 10,1 9,3 8 4 SE 1031,5 7 0,0
15.01.2021 02:00:00 10,4 9,6 4 2 E 1032,0 7 0,0
15.01.2021 01:00:00 10,5 9,7 5 3 SE 1032,1 10 -
15.01.2021 00:00:00 10,8 10,0 2 1 SSW 1031,9 7 0,2
14.01.2021 23:00:00 10,8 10,0 4 2 SE 1031,7 5 0,2
14.01.2021 22:00:00 11,0 10,1 4 2 ESE 1031,4 3,0 -
14.01.2021 21:00:00 10,9 10,0 2 1 SSE 1031,1 7 0,0
14.01.2021 20:00:00 10,8 10,0 2 1 SW 1031,2 7 0,0
14.01.2021 19:00:00 10,7 9,8 4 2 SSE 1031,0 3,2 -
14.01.2021 18:00:00 11,1 9,7 5 3 SE 1031,2 5 1,0
14.01.2021 17:00:00 11,8 9,2 2 1 NW 1031,2 20 0,0
14.01.2021 16:00:00 11,6 8,3 4 2 SSE 1031,1 20 -
14.01.2021 15:00:00 11,0 7,7 5 3 SE 1031,3 20 0,0
14.01.2021 14:00:00 11,0 7,1 8 4 SE 1031,9 20 0,0
14.01.2021 13:00:00 10,7 6,8 5 3 SE 1032,4 18 -
14.01.2021 12:00:00 9,7 5,7 9 5 SSE 1032,8 20 0,0
14.01.2021 11:00:00 9,1 5,1 9 5 SSE 1032,3 20 0,0
14.01.2021 10:00:00 8,9 4,9 8 4 SSE 1031,9 18 -
14.01.2021 09:00:00 8,8 4,8 11 6 S 1031,6 20 0,0
14.01.2021 08:00:00 8,8 4,8 9 5 SSE 1031,7 20 0,0
14.01.2021 07:00:00 9,1 4,7 9 5 SSE 1031,5 18 -
14.01.2021 06:00:00 9,1 4,7 8 4 S 1031,7 20 0,0
14.01.2021 05:00:00 8,9 4,7 9 5 S 1031,7 20 0,0
14.01.2021 04:00:00 8,8 4,8 13 7 S 1031,9 18 -
14.01.2021 03:00:00 8,9 4,7 11 6 S 1032,0 20 0,0
14.01.2021 02:00:00 9,0 4,6 8 4 S 1032,3 20 0,0
14.01.2021 01:00:00 9,0 4,4 8 4 S 1032,9 18 -
14.01.2021 00:00:00 8,9 4,1 9 5 S 1033,2 20 0,0
13.01.2021 23:00:00 8,9 4,1 9 5 S 1033,3 20 0,0
13.01.2021 22:00:00 9,0 4,2 8 4 S 1033,1 18 -
13.01.2021 21:00:00 9,1 4,3 9 5 SSW 1032,9 20 0,0
13.01.2021 20:00:00 9,2 4,2 5 3 SW 1032,8 20 0,0
13.01.2021 19:00:00 9,2 4,4 8 4 W 1032,6 20 -
13.01.2021 18:00:00 9,1 4,3 5 3 W 1032,4 20 0,0
13.01.2021 17:00:00 9,5 4,3 9 5 WNW 1032,3 20 0,0
13.01.2021 16:00:00 9,9 3,8 8 4 NNW 1032,0 20 -
13.01.2021 15:00:00 10,9 3,9 5 3 NW 1031,9 20 0,0
13.01.2021 14:00:00 11,2 4,4 4 2 ENE 1032,4 20 0,0
13.01.2021 13:00:00 10,5 3,7 4 2 SE 1033,1 22 -
13.01.2021 12:00:00 9,2 3,2 4 2 SE 1033,5 20 0,0
13.01.2021 11:00:00 6,4 2,8 5 3 SE 1033,7 20 0,0
13.01.2021 10:00:00 5,1 2,4 4 2 SSE 1033,4 18 -
13.01.2021 09:00:00 5,5 2,5 8 4 SSE 1033,3 20 0,0
13.01.2021 08:00:00 5,2 2,5 5 3 SSE 1032,9 20 0,0
13.01.2021 07:00:00 5,0 2,7 4 2 S 1032,7 15 -
13.01.2021 06:00:00 4,4 2,4 9 5 S 1032,8 20 0,0
13.01.2021 05:00:00 4,1 2,1 8 4 S 1033,1 19 0,0
13.01.2021 04:00:00 4,1 2,1 4 2 SSE 1033,0 15 -
13.01.2021 03:00:00 4,7 2,6 2 1 SSE 1032,7 17 0,0
13.01.2021 02:00:00 5,8 3,0 4 2 SSE 1032,6 20 0,0
13.01.2021 01:00:00 6,4 3,4 11 6 SSE 1033,2 15 -
13.01.2021 00:00:00 6,9 3,3 8 4 SSE 1033,2 20 0,0
12.01.2021 23:00:00 7,2 3,8 8 4 SSE 1033,1 20 0,0
12.01.2021 22:00:00 7,3 3,7 9 5 S 1033,0 15 -
12.01.2021 21:00:00 8,1 3,9 9 5 S 1032,7 20 0,0
12.01.2021 20:00:00 8,2 4,0 5 3 SSE 1032,8 19 0,0
12.01.2021 19:00:00 8,3 3,7 2 1 NW 1032,8 20 -
12.01.2021 18:00:00 8,9 3,5 4 2 NW 1032,5 20 0,0
12.01.2021 17:00:00 9,5 3,7 8 4 NW 1032,2 20 0,0
12.01.2021 16:00:00 10,0 3,5 8 4 N 1031,7 20 -
12.01.2021 15:00:00 11,3 4,0 8 4 N 1031,6 20 0,0
12.01.2021 14:00:00 10,3 2,9 5 3 ESE 1032,1 20 0,0
12.01.2021 13:00:00 9,6 2,0 9 5 SSE 1032,5 22 -
12.01.2021 12:00:00 8,1 1,5 13 7 SSE 1032,8 20 0,0
12.01.2021 11:00:00 6,7 1,2 8 4 SSE 1032,6 20 0,0
12.01.2021 10:00:00 5,1 1,4 9 5 SSE 1031,8 18 -
12.01.2021 09:00:00 3,7 1,1 4 2 SSE 1031,6 19 0,0
12.01.2021 08:00:00 3,3 1,0 5 3 SSE 1031,1 19 0,0
12.01.2021 07:00:00 3,7 1,1 5 3 SSE 1030,8 15 -
12.01.2021 06:00:00 4,4 1,4 5 3 SSE 1030,4 20 0,0
12.01.2021 05:00:00 4,7 1,7 11 6 SSE 1030,4 20 0,0
12.01.2021 04:00:00 4,9 1,7 9 5 SSE 1030,7 15 -
12.01.2021 03:00:00 5,5 2,1 5 3 SSE 1030,5 20 0,0
12.01.2021 02:00:00 5,8 2,4 8 4 SSE 1030,4 20 0,0
12.01.2021 01:00:00 6,5 2,9 8 4 SSE 1030,5 15 -
12.01.2021 00:00:00 7,0 3,8 5 3 ESE 1030,5 18 0,0
11.01.2021 23:00:00 7,7 3,9 9 5 ENE 1030,1 20 0,0
11.01.2021 22:00:00 8,1 3,2 9 5 NE 1029,7 15 -
11.01.2021 21:00:00 8,4 2,8 13 7 NE 1029,5 20 0,0
11.01.2021 20:00:00 8,6 3,2 16 9 NE 1029,2 20 0,0
11.01.2021 19:00:00 9,1 3,1 15 8 ENE 1028,5 20 -
11.01.2021 18:00:00 9,5 3,0 21 11 NE 1028,3 20 0,0
11.01.2021 17:00:00 9,7 3,0 24 13 ENE 1027,9 20 0,0
11.01.2021 16:00:00 10,4 3,0 18 10 ENE 1027,5 20 -
11.01.2021 15:00:00 10,8 3,6 18 10 ENE 1027,5 20 0,0
11.01.2021 14:00:00 11,0 3,8 18 10 ENE 1027,6 20 0,0
11.01.2021 13:00:00 10,6 2,9 18 10 NE 1028,6 25 -
11.01.2021 12:00:00 9,8 2,6 11 6 ENE 1029,2 20 0,0
11.01.2021 11:00:00 8,2 2,4 2 1 ENE 1028,8 20 0,0
11.01.2021 10:00:00 7,2 2,3 4 2 E 1028,1 25 -
11.01.2021 09:00:00 7,3 2,6 11 6 ENE 1027,5 20 0,0
11.01.2021 08:00:00 7,7 2,2 15 8 ENE 1027,2 20 0,0
11.01.2021 07:00:00 7,9 2,1 21 11 ENE 1027,0 20 -
11.01.2021 06:00:00 7,9 0,6 15 8 ENE 1026,8 20 0,0
11.01.2021 05:00:00 7,8 1,0 13 7 ENE 1026,8 20 0,0
11.01.2021 04:00:00 8,0 1,6 21 11 NE 1026,8 20 -
11.01.2021 03:00:00 8,0 1,4 15 8 NE 1026,5 20 0,0
11.01.2021 02:00:00 8,1 1,0 21 11 ENE 1026,4 20 0,0
11.01.2021 01:00:00 8,2 1,1 24 13 ENE 1026,4 20 -
11.01.2021 00:00:00 8,1 0,8 18 10 ENE 1026,5 20 0,0
10.01.2021 23:00:00 7,9 0,6 21 11 ENE 1026,2 20 0,0
10.01.2021 22:00:00 7,9 1,1 18 10 NE 1025,9 20 -
10.01.2021 21:00:00 8,1 0,8 24 13 ENE 1025,3 20 0,0
10.01.2021 20:00:00 8,1 0,8 28 15 ENE 1024,7 20 0,0
10.01.2021 19:00:00 8,3 1,0 31 17 NE 1024,3 20 -
10.01.2021 18:00:00 8,7 0,9 24 13 ENE 1023,9 20 0,0
10.01.2021 17:00:00 8,9 1,5 28 15 ENE 1023,0 20 0,0
10.01.2021 16:00:00 9,4 -0,8 35 19 ENE 1022,3 20 -
10.01.2021 15:00:00 9,8 1,7 29 16 ENE 1022,1 20 0,0
10.01.2021 14:00:00 10,1 -0,4 39 21 NE 1021,9 20 0,0
10.01.2021 13:00:00 9,9 1,3 31 17 NE 1022,5 25 -
10.01.2021 12:00:00 9,7 2,5 28 15 NE 1022,8 20 0,0
10.01.2021 11:00:00 8,9 2,0 26 14 NE 1022,0 20 0,0
10.01.2021 10:00:00 8,4 1,1 35 19 NE 1020,7 20 -
10.01.2021 09:00:00 8,1 2,1 34 18 NE 1019,6 20 0,0
10.01.2021 08:00:00 8,1 1,9 26 14 ENE 1019,2 20 0,0
10.01.2021 07:00:00 7,8 3,1 28 15 NE 1018,6 20 -
10.01.2021 06:00:00 7,2 3,8 29 16 ENE 1018,2 15 0,0

tt = temperature
td = dewpoint
ff = wind speed
dd = wind direction
ppp = reduced air pressure
vv = visibility
rr = precipitation

Next stations